Location: Hodonín
(48.8492°N, 17.1324°E)
Time: 07:24:05
(UTC+02:00)

Tiangong - Visible Passes

Search period start: 22 September 2021 00:00
Search period end: 02 October 2021 00:00
Orbit: 380 x 385 km, 41.5° (Epoch: 21 September)

Date Brightness Start Highest point End Pass type
(mag) Time Alt. Az. Time Alt. Az. Time Alt. Az.
26 Sep 4.0 06:02:10 10° SSE 06:02:46 10° SSE 06:03:21 10° SE visible
28 Sep 3.6 05:37:03 10° SSW 05:38:48 14° SSE 05:40:34 10° SE visible
29 Sep 4.0 04:39:17 10° SSE 04:39:17 10° SSE 04:39:20 10° SSE visible
29 Sep 3.1 06:12:29 10° SW 06:14:54 20° S 06:17:20 10° ESE visible
30 Sep 3.1 05:14:09 16° S 05:14:51 17° SSE 05:17:03 10° ESE visible
01 Oct 2.9 05:48:59 13° SW 05:50:59 21° S 05:53:28 10° SE visible
